LZTTLBBG

Guest
Details From LZTT - Tatry
To LBBG - Burgas
Flight Number -
Tags Generated
Created
Modified
Stats Distance 496 nm / 919 km
Max Altitude 0 ft / 0 m
Waypoints 4
Social Downloads 0
Likes 0
Share VATSIM

Download

Looking for another format? Having issues loading an existing format? Contact us
Advertisement - Login to hide

Notes

Generated

Route

LZTT SIB B LBBG

ID Type Via Altitude Latitude Longitude Leg Dist Tot Dist Heading (true) Name
O LZTT APT - 0 ft / 0 m 49.07443˚ 20.22347˚ - 0 nm - -
SIB NDB - 0 ft / 0 m 45.78501˚ 24.15258˚ 253 nm 253 nm 140° / 142° SIBIU NDB
B NDB - 0 ft / 0 m 42.55354˚ 27.49328˚ 241 nm 495 nm 142° / 145° BURGAS NDB
O LBBG APT - 0 ft / 0 m 42.55983˚ 27.50160˚ 0 nm 496 nm 44° / 44° -

Altitude Profile

Advertisement - Login to hide

Weather


0- 5 10 15 20 25 30 35+ Temperature / ° C

Clouds and Precipitation
Forecast for 2018-05-26 06:00 UTC. Updated 3 hours ago

Ground ~20,000 ft ~40,000 ft Winds

LZTT

Details ICAO LZTT (TAT)
Name POPRAD TATRY
Region Slovakia
Timezone Europe/Bratislava (UTC+2.0)
Stats Elevation 2,355 ft / 718 m (AMSL)
Location 49.072159° 20.241258°
Runways 2
Magnetic Variation 5.223° E

METAR

LZTT 260830Z 07003KT 350V150 9999 FEW036TCU 20/11 Q1023 NOSIG

Decode

TAF

Not found

Departure Runways

ID Width Length Bearing (true) Bearing (mag) Surface Threshold Offset Overrun Length
07 269 ft / 82 m 2,492 ft / 760 m 73.54° 68.32° Grass 0 ft / 0 m 0 ft / 0 m
09 148 ft / 45 m 8,478 ft / 2,584 m 94.19° 88.97° Concrete 0 ft / 0 m 0 ft / 0 m
25 269 ft / 82 m 2,492 ft / 760 m 253.55° 248.33° Grass 0 ft / 0 m 0 ft / 0 m
27 148 ft / 45 m 8,478 ft / 2,584 m 274.21° 268.99° Concrete 0 ft / 0 m 0 ft / 0 m

LBBG

Details ICAO LBBG (BOJ)
Name Burgas
Region Bulgaria
Timezone Europe/Sofia (UTC+3.0)
Stats Elevation 135 ft / 41 m (AMSL)
Location 42.570130° 27.515240°
Runways 1
Magnetic Variation 5.549° E

METAR

LBBG 260830Z 03015KT 9999 FEW035 26/18 Q1016 TEMPO 3000 TSRA

Decode

TAF

TAF TAF LBBG 260500Z 2606/2706 06014KT 9999 SCT045 BECMG 2607/2609 06016KT TEMPO 2609/2616 VRB18KT 4000 TSRA SCT030CB BKN040 BECMG 2618/2620 36012KT TEMPO 2622/2705 5000 RA BKN015 OVC030

Decode

Destination Runways

ID Width Length Bearing (true) Bearing (mag) Surface Threshold Offset Overrun Length
04 148 ft / 45 m 10,502 ft / 3,201 m 44.28° 38.73° Concrete 0 ft / 0 m 190 ft / 58 m
22 148 ft / 45 m 10,502 ft / 3,201 m 224.29° 218.74° Concrete 0 ft / 0 m 190 ft / 58 m

Approach Navaids

Runway Type Ident Frequency Range Bearing (true) Bearing (mag) Slope Elevation
22 Localiser IBG 110.30 MHz 18 nm / 33 km 224.26° 218.72° - 135 ft / 41 m (AMSL)
22 Glidescope IBG 110.30 MHz 10 nm / 19 km 224.28° 218.74° 3.00° 135 ft / 41 m (AMSL)

Popular Alternatives